Probability
23 35 77 71 71 77 77 77 77 84 84 87 87 90 94 90 84 81 84 87 84 87 81 81 84 84 81 81 84 77 87 77 74 81 81 71 74 68 65 68 65 45 74
26 52 77 77 87 87 81 84 84 84 87 90 87 87 94 97 84 84 84 90 90 84 84 84 84 87 87 87 87 84 81 77 68 74 74 65 71 68 71 68 58 52 68
26 48 68 87 84 84 84 81 87 81 74 87 87 90 97 94 87 87 87 90 94 90 87 87 87 84 87 87 81 81 84 74 77 65 61 32 61 71 74 71 71 71 74
32 48 61 84 84 84 84 84 87 87 84 90 90 94 94 94 90 90 94 94 94 94 90 87 87 84 84 87 84 81 71 71 74 71 35 23 26 65 68 68 68 68 71
32 58 84 94 90 87 87 87 90 90 90 90 90 90 90 87 90 84 90 90 94 90 90 84 84 81 81 81 74 68 68 77 68 61 42 35 32 65 61 61 58 68 61
35 58 77 87 90 90 90 90 87 90 94 90 87 84 87 87 90 90 87 87 81 81 81 84 77 77 74 74 68 61 61 65 77 42 39 35 39 68 58 52 55 55 61
39 52 68 87 90 90 90 87 87 87 87 90 87 84 81 81 87 87 87 81 81 77 77 71 68 71 71 68 65 58 65 77 52 39 48 48 58 74 61 55 52 55 58
42 45 74 87 87 87 87 87 77 84 81 84 87 81 81 81 84 84 87 81 81 77 77 71 58 61 52 48 48 52 74 84 55 35 42 48 74 77 55 48 55 55 58
39 55 65 74 81 87 84 84 81 81 84 84 81 84 84 81 84 84 84 81 77 84 81 71 55 42 42 48 48 52 77 90 42 35 29 39 77 74 61 48 58 61 65
45 55 68 71 81 81 77 84 87 84 84 84 77 77 77 77 81 81 81 74 68 68 68 52 45 39 52 45 55 61 81 77 26 26 26 52 87 81 68 68 55 55 48
42 65 61 71 71 68 58 71 81 77 81 84 84 77 77 81 68 77 61 81 65 58 52 52 45 39 55 61 71 77 71 42 26 35 42 77 87 74 68 61 52 39 42
45 45 68 77 71 61 61 74 81 71 81 90 90 90 87 87 74 45 68 65 52 58 58 65 65 71 74 61 68 77 58 39 26 35 39 77 84 74 68 58 45 42 39
42 52 55 74 77 65 77 81 84 84 87 87 84 90 90 84 77 68 68 65 71 58 58 74 74 58 65 65 61 58 55 32 23 32 45 87 81 71 61 68 55 55 55
45 55 55 71 87 90 87 77 84 77 84 90 87 87 90 81 84 81 84 84 84 77 87 87 77 71 61 48 48 52 52 52 45 39 61 84 81 74 65 61 65 65 58
68 65 87 97 90 90 94 94 84 90 87 87 90 90 90 84 81 81 84 87 84 77 87 87 77 71 74 65 52 52 52 45 48 42 45 81 81 74 65 61 55 61 58
61 61 84 87 97 94 90 94 90 90 94 90 94 90 94 90 81 84 84 84 81 81 77 84 77 81 74 74 65 55 55 58 61 45 32 71 81 77 77 58 58 58 58
71 81 90 94 97 94 94 94 94 90 90 94 94 90 90 90 90 84 87 84 84 87 84 87 71 74 71 61 58 58 52 58 58 52 45 39 35 71 74 61 58 52 48
90 97 94 68 90 94 97 94 94 90 94 94 94 94 84 90 90 87 84 74 77 77 81 84 84 84 74 71 68 61 58 61 58 55 58 58 39 23 52 61 68 65 52
100 100 100 94 97 97 97 94 94 94 94 94 94 90 90 81 77 84 87 87 77 81 77 65 81 77 71 71 71 65 55 61 61 48 58 55 55 55 35 45 74 74 55
100 100 100 97 97 97 100 100 94 94 94 94 94 87 84 84 81 84 84 84 74 81 81 77 74 77 77 74 48 45 71 65 71 61 61 55 55 52 39 39 55 52 71
100 100 97 97 97 100 100 100 94 94 94 94 90 90 84 77 81 84 84 87 84 81 74 81 84 74 77 81 68 65 58 65 71 71 61 61 45 55 55 48 32 32 35
100 100 97 97 97 100 100 100 97 97 97 94 90 90 87 77 74 61 90 90 87 84 84 84 84 84 74 71 71 65 42 42 61 32 55 61 48 55 55 52 45 55 48
97 100 97 97 97 100 100 100 97 100 97 94 90 90 84 84 77 84 87 84 90 87 90 87 81 74 71 77 71 74 58 42 35 55 52 52 61 58 48 42 45 48 52
97 97 100 100 100 100 100 97 94 94 94 90 90 90 87 81 81 81 81 81 84 87 90 81 84 81 77 74 71 77 71 71 48 42 45 48 52 55 52 29 32 42 45
94 94 100 100 100 100 100 97 94 90 87 90 90 90 84 84 81 77 74 74 77 84 81 77 84 84 84 77 77 68 71 71 55 48 39 42 52 42 32 35 32 39 32
87 94 97 97 97 97 94 94 90 90 90 90 90 90 87 81 77 71 71 74 71 81 77 74 77 74 74 68 71 65 58 48 55 45 39 29 19 29 45 32 32 32 32
Height
5877 5876 5876 5875 5875 5874 5874 5874 5873 5873 5873 5874 5874 5874 5874 5875 5875 5875 5876 5876 5877 5877 5878 5878 5879 5879 5880 5881 5881 5882 5882 5883 5883 5883 5884 5884 5885 5886 5886 5886 5887 5887 5887
5879 5878 5877 5877 5877 5876 5876 5876 5875 5875 5875 5875 5875 5876 5876 5876 5877 5877 5878 5878 5879 5879 5880 5880 5880 5881 5882 5882 5883 5883 5884 5884 5884 5885 5885 5886 5886 5887 5887 5888 5888 5888 5888
5881 5880 5879 5879 5878 5878 5878 5877 5877 5877 5877 5877 5877 5877 5877 5878 5878 5879 5879 5880 5880 5881 5881 5882 5882 5883 5883 5884 5884 5885 5885 5886 5886 5886 5887 5887 5888 5888 5889 5889 5889 5889 5889
5883 5882 5882 5881 5881 5880 5880 5879 5879 5879 5878 5878 5878 5879 5879 5879 5880 5880 5881 5881 5881 5882 5883 5883 5884 5884 5885 5886 5886 5886 5887 5887 5888 5888 5888 5889 5889 5889 5890 5890 5890 5890 5891
5885 5884 5883 5883 5883 5882 5882 5881 5881 5880 5880 5880 5880 5880 5881 5881 5882 5882 5882 5883 5883 5884 5884 5885 5885 5886 5886 5887 5888 5888 5888 5889 5889 5890 5890 5890 5891 5891 5891 5891 5891 5892 5892
5887 5886 5886 5885 5885 5884 5884 5883 5883 5882 5882 5882 5882 5882 5883 5883 5883 5883 5884 5884 5885 5885 5886 5886 5887 5887 5888 5888 5889 5890 5890 5890 5891 5891 5892 5892 5892 5892 5892 5893 5893 5893 5893
5889 5888 5888 5887 5887 5886 5886 5885 5885 5884 5884 5884 5884 5884 5884 5884 5885 5885 5885 5886 5886 5887 5887 5888 5888 5889 5889 5890 5891 5891 5892 5892 5892 5893 5893 5893 5893 5894 5894 5894 5894 5894 5895
5892 5891 5890 5889 5889 5888 5888 5887 5887 5886 5886 5886 5886 5886 5886 5886 5886 5887 5887 5888 5888 5888 5889 5889 5890 5890 5891 5892 5892 5893 5893 5894 5894 5894 5894 5894 5895 5895 5895 5895 5896 5896 5896
5894 5893 5892 5891 5891 5890 5890 5890 5889 5888 5888 5887 5887 5887 5887 5887 5888 5888 5889 5889 5889 5890 5890 5891 5892 5892 5892 5893 5893 5894 5894 5895 5895 5895 5896 5896 5896 5896 5896 5896 5897 5897 5897
5897 5896 5895 5894 5893 5893 5892 5891 5891 5890 5890 5890 5889 5889 5889 5889 5890 5890 5890 5891 5891 5892 5892 5892 5893 5893 5894 5894 5895 5895 5896 5896 5897 5897 5897 5897 5897 5897 5897 5897 5898 5898 5898
5899 5899 5898 5897 5896 5895 5894 5893 5892 5892 5892 5892 5891 5891 5891 5891 5891 5892 5892 5893 5893 5893 5893 5894 5894 5895 5895 5896 5896 5896 5897 5897 5898 5898 5898 5898 5898 5898 5898 5898 5899 5899 5899
5902 5901 5900 5900 5899 5898 5897 5895 5895 5894 5893 5893 5893 5893 5893 5893 5893 5893 5894 5894 5895 5895 5895 5895 5896 5896 5896 5897 5897 5898 5898 5899 5899 5899 5899 5899 5899 5899 5899 5899 5899 5899 5899
5905 5904 5903 5902 5901 5900 5899 5898 5898 5897 5896 5895 5895 5895 5895 5894 5894 5895 5895 5895 5896 5896 5896 5896 5897 5897 5898 5898 5899 5899 5899 5900 5900 5900 5900 5900 5900 5900 5900 5900 5900 5900 5900
5908 5907 5906 5905 5904 5903 5902 5901 5900 5899 5898 5897 5897 5896 5896 5896 5896 5896 5896 5896 5897 5897 5898 5898 5898 5899 5899 5900 5900 5900 5900 5900 5900 5900 5900 5901 5901 5901 5900 5900 5900 5900 5900
5910 5909 5908 5907 5906 5905 5904 5903 5902 5901 5900 5899 5898 5898 5897 5897 5897 5897 5897 5897 5898 5898 5899 5899 5900 5900 5900 5901 5901 5901 5901 5901 5901 5901 5901 5901 5901 5901 5901 5900 5900 5900 5900
5912 5911 5910 5909 5908 5906 5906 5905 5903 5903 5902 5901 5900 5899 5899 5898 5898 5898 5898 5898 5899 5899 5900 5900 5900 5901 5901 5901 5902 5901 5901 5901 5901 5901 5901 5901 5901 5901 5901 5900 5900 5900 5900
5914 5913 5912 5910 5909 5908 5907 5906 5905 5904 5903 5902 5902 5901 5901 5900 5900 5899 5899 5900 5900 5900 5900 5901 5901 5901 5901 5902 5902 5901 5901 5901 5902 5901 5901 5901 5900 5900 5900 5900 5900 5899 5899
5916 5915 5913 5912 5911 5909 5909 5908 5907 5906 5905 5904 5903 5903 5902 5902 5901 5900 5900 5900 5900 5901 5901 5901 5901 5901 5901 5901 5901 5901 5901 5902 5901 5901 5901 5901 5900 5899 5900 5899 5899 5899 5898
5917 5916 5915 5914 5912 5911 5910 5909 5908 5907 5906 5905 5904 5904 5903 5903 5902 5901 5901 5900 5901 5901 5901 5901 5901 5901 5901 5901 5901 5901 5901 5901 5901 5901 5900 5900 5899 5899 5899 5899 5898 5898 5897
5919 5918 5916 5915 5913 5912 5911 5910 5909 5908 5908 5906 5905 5905 5904 5903 5903 5902 5901 5901 5901 5901 5901 5900 5900 5900 5900 5900 5900 5900 5900 5900 5900 5900 5899 5899 5898 5898 5898 5897 5897 5896 5896
5920 5919 5918 5917 5915 5914 5913 5912 5911 5909 5908 5907 5906 5905 5904 5904 5903 5902 5901 5901 5901 5900 5900 5900 5900 5900 5899 5899 5899 5899 5899 5899 5899 5899 5898 5898 5897 5897 5896 5896 5895 5894 5894
5922 5920 5919 5918 5917 5915 5914 5913 5911 5910 5909 5908 5906 5906 5905 5904 5903 5902 5902 5901 5900 5900 5900 5900 5899 5899 5899 5898 5898 5898 5898 5899 5898 5897 5897 5897 5896 5895 5895 5894 5893 5893 5892
5922 5921 5920 5919 5918 5916 5914 5913 5912 5910 5909 5908 5907 5905 5905 5904 5903 5902 5901 5900 5900 5900 5900 5899 5899 5898 5898 5897 5897 5897 5897 5897 5897 5896 5895 5895 5894 5893 5893 5892 5891 5890 5890
5923 5922 5921 5920 5918 5917 5915 5913 5912 5911 5910 5908 5907 5906 5904 5903 5902 5901 5900 5900 5899 5899 5898 5898 5898 5897 5896 5896 5895 5895 5895 5895 5895 5894 5894 5893 5892 5891 5891 5890 5889 5888 5887
5924 5923 5921 5920 5919 5917 5916 5914 5913 5911 5910 5908 5907 5905 5904 5903 5902 5900 5899 5899 5898 5898 5897 5897 5896 5896 5895 5895 5894 5893 5893 5892 5892 5892 5891 5891 5890 5889 5888 5888 5887 5885 5884
5924 5923 5922 5920 5919 5917 5916 5915 5913 5911 5910 5908 5907 5905 5904 5902 5901 5899 5898 5897 5897 5896 5896 5895 5894 5894 5894 5893 5893 5892 5891 5890 5890 5889 5889 5888 5887 5887 5886 5885 5884 5882 5881
Wind_Speed
11 12 11 11 10 10 10 9 9 9 9 9 9 9 9 9 9 9 10 10 10 10 10 11 11 11 10 10 10 10 10 9 9 9 9 9 8 7 7 7 7 6 6
11 11 11 10 10 10 9 8 8 8 8 8 8 8 8 9 9 9 10 10 10 10 10 10 10 9 9 9 9 9 9 9 9 9 9 9 8 8 7 7 7 7 7
11 11 11 10 10 9 9 8 7 7 7 7 7 8 9 9 9 9 9 10 10 10 10 10 9 9 9 9 9 8 9 9 9 9 9 8 8 7 7 7 7 7 7
11 11 10 10 10 10 9 8 7 7 7 7 8 8 9 9 9 9 9 9 9 9 9 9 9 9 9 9 9 9 9 9 9 9 8 8 8 8 7 7 7 7 7
11 11 10 10 9 9 9 8 7 7 7 7 8 9 9 9 9 9 9 9 9 9 9 8 9 9 8 8 8 8 9 8 8 8 8 8 8 7 7 7 7 7 7
11 11 10 10 9 9 8 8 8 7 7 7 8 8 9 9 8 8 9 8 8 8 8 8 8 8 8 8 8 8 8 8 8 7 7 7 7 7 7 7 7 6 7
12 11 11 10 10 9 9 8 8 7 7 7 7 7 7 8 8 8 8 8 8 8 8 7 7 7 7 7 8 8 8 7 7 7 7 7 7 6 6 6 6 6 6
13 12 11 11 10 9 9 9 9 8 7 6 7 6 7 8 8 8 8 8 7 7 7 7 7 7 7 7 7 7 7 7 6 6 6 7 6 6 5 5 5 5 5
13 13 12 12 11 10 9 9 8 8 8 7 7 7 7 7 8 8 8 7 7 7 7 7 7 6 6 6 6 7 6 6 6 6 6 6 5 5 4 4 4 4 4
13 13 13 13 12 10 9 9 9 8 7 7 8 8 7 6 7 7 7 7 7 7 7 7 6 6 6 6 6 6 6 6 5 5 5 5 5 4 3 3 4 3 3
14 13 13 13 12 11 10 10 9 9 8 7 7 6 7 6 6 6 6 6 7 7 7 6 6 6 6 6 6 6 6 6 5 5 5 5 5 4 4 3 3 3 3
14 13 13 13 12 12 11 11 10 9 9 7 6 6 6 5 5 5 5 5 5 5 5 5 5 6 7 7 6 6 6 5 5 4 4 4 4 3 3 3 2 3 2
15 14 13 13 12 12 12 11 10 9 9 9 7 6 5 4 4 4 4 5 4 4 4 5 6 6 6 6 6 6 5 5 4 4 3 3 3 3 3 3 2 1 1
15 14 13 13 12 12 12 11 11 10 9 9 8 7 7 5 5 5 4 5 4 5 5 5 5 5 5 5 5 5 4 3 3 3 2 2 2 2 2 2 1 1 1
15 14 13 13 13 12 12 11 11 11 10 9 8 8 7 6 5 4 3 4 4 4 4 4 4 4 3 3 3 3 3 3 3 2 2 2 2 2 2 1 1 1 1
14 14 13 13 13 12 12 11 10 10 10 9 8 7 7 6 5 4 4 3 3 2 3 3 3 2 2 1 1 1 2 2 2 2 2 2 2 2 2 2 1 1 2
14 13 13 13 13 13 12 11 10 9 9 9 9 8 7 6 5 4 3 2 2 2 1 1 1 1 1 1 1 1 1 1 2 2 2 2 2 2 3 3 3 3 3
13 13 13 13 13 12 11 11 10 9 9 9 8 8 7 7 6 5 3 2 2 1 1 1 1 0 1 1 2 2 2 2 2 2 2 3 3 3 3 4 4 4 4
13 12 13 13 12 12 11 11 11 10 9 9 8 8 7 7 6 6 4 4 3 3 3 2 2 2 2 2 2 2 2 3 3 3 3 3 4 4 5 5 6 6 6
12 12 13 13 12 12 12 11 10 10 9 9 9 8 7 7 7 6 5 4 4 3 3 2 3 3 3 3 3 3 3 3 4 4 4 5 5 6 6 7 8 8 8
12 12 12 13 13 13 12 12 11 10 10 9 9 8 8 7 6 6 5 4 4 3 3 3 4 4 5 5 4 5 4 4 5 5 5 6 6 7 7 8 9 9 9
12 11 11 12 13 13 12 12 12 11 11 10 9 8 8 7 6 6 5 5 4 4 4 5 5 5 5 6 6 6 5 6 6 6 7 7 7 8 9 10 10 11 10
12 12 12 12 13 13 12 12 12 12 11 11 11 9 8 8 8 7 6 5 5 4 5 5 5 6 6 6 6 7 7 7 7 8 8 8 9 10 10 11 10 10 11
11 12 12 12 13 13 13 11 12 12 12 11 11 11 10 9 9 7 6 6 6 6 6 6 6 6 7 6 7 8 8 8 8 9 9 9 9 11 11 11 11 11 12
11 11 12 12 12 12 12 12 12 12 12 12 12 12 11 11 10 8 8 8 7 7 7 6 6 7 7 7 8 8 9 9 9 10 10 10 11 11 12 12 12 13 12
11 11 12 12 12 12 13 13 13 13 13 13 13 12 12 11 11 10 9 9 8 8 8 8 7 7 8 8 9 9 9 10 10 11 11 11 11 12 13 13 14 14 13
Wind_Direction
60 64 67 67 70 75 82 89 93 104 108 106 109 108 107 108 111 113 115 115 111 107 105 103 109 108 103 99 98 97 96 95 96 97 100 99 98 96 94 94 92 90 94
60 63 65 64 65 68 73 79 86 94 101 104 105 106 107 109 111 115 115 117 114 110 107 107 107 102 103 103 100 100 100 95 95 97 100 98 96 93 90 92 93 91 94
59 60 60 60 62 66 70 74 81 86 91 97 100 102 106 110 111 112 112 115 115 115 110 107 107 103 103 105 103 103 103 97 93 97 97 96 93 90 89 91 92 93 92
56 57 58 61 62 66 68 70 75 81 88 93 98 101 105 109 110 111 113 115 116 116 111 107 104 103 101 103 102 103 101 97 93 93 94 94 92 89 88 87 87 91 91
54 56 60 61 61 63 65 64 68 78 89 94 100 101 105 108 109 111 112 113 114 114 114 108 105 105 101 102 103 102 101 96 92 89 89 89 90 88 87 82 82 87 86
55 57 58 58 58 62 64 65 67 75 86 95 99 100 102 103 106 109 110 109 112 112 111 107 106 105 103 100 98 100 99 97 92 91 91 90 91 91 86 82 80 81 81
57 58 57 57 58 61 64 67 69 74 82 89 96 100 99 103 106 108 110 109 112 116 113 110 107 104 105 100 98 100 98 95 94 95 91 92 92 94 88 84 81 79 80
57 56 57 58 59 63 66 69 73 81 82 87 94 96 101 105 101 104 108 113 114 113 112 108 111 110 104 100 98 100 98 93 96 96 91 92 92 92 88 87 83 80 82
58 58 57 57 58 61 63 66 72 78 78 86 94 94 98 104 102 101 105 110 112 115 117 116 119 113 104 97 94 95 95 94 94 91 90 89 88 89 87 85 83 80 79
55 55 54 55 57 58 61 64 68 73 75 82 90 88 91 103 104 105 108 109 107 104 113 117 112 101 101 95 92 93 94 93 93 89 86 83 82 83 80 75 86 81 78
52 52 51 52 53 53 54 58 60 65 71 77 84 83 87 94 98 103 107 110 110 107 111 110 100 94 91 89 86 86 88 88 85 83 81 79 77 75 74 76 81 76 79
47 48 48 48 47 48 49 51 52 55 65 73 78 78 87 95 96 102 110 112 110 110 115 116 104 98 94 89 86 85 83 82 82 79 80 73 68 63 62 62 72 79 80
43 43 43 43 43 42 43 47 48 50 52 57 65 73 81 87 87 96 99 109 112 114 113 112 108 103 97 91 88 85 83 82 79 76 81 70 59 58 49 46 72 81 67
42 42 40 37 38 39 38 39 40 43 43 44 50 59 68 74 80 89 96 99 106 109 104 105 107 102 97 94 86 77 78 81 76 68 77 73 60 54 38 32 42 30 351
37 37 36 34 34 35 33 34 36 40 39 39 41 50 53 61 71 73 78 97 92 96 99 105 110 102 93 85 72 68 64 62 52 47 69 65 52 38 14 345 326 299 305
34 34 31 30 29 30 30 30 31 32 34 33 41 46 51 55 61 68 77 86 79 89 94 102 110 92 99 67 47 57 57 49 34 30 31 18 356 348 349 345 331 320 310
32 31 28 26 25 25 27 29 29 28 28 35 39 36 42 52 51 46 48 59 68 82 88 80 71 70 65 11 353 355 353 10 10 348 341 342 329 326 333 339 339 324 310
27 26 24 23 22 21 23 27 28 27 29 32 34 33 35 35 29 23 25 42 39 38 351 330 335 292 301 319 310 306 314 319 328 340 337 345 341 328 318 315 311 303 299
22 24 23 21 22 20 18 22 22 24 27 27 30 30 31 30 24 17 9 15 12 5 355 345 328 292 285 292 305 301 293 301 310 317 315 316 319 320 315 309 306 302 299
24 24 23 25 26 23 20 19 19 21 19 19 23 23 23 25 20 13 8 9 12 357 352 353 339 324 303 291 291 292 297 297 300 301 302 301 304 306 309 307 303 301 300
23 23 24 25 23 20 17 14 16 15 16 15 13 9 10 16 15 14 11 5 356 352 346 339 326 318 308 295 288 290 294 286 289 298 301 303 304 307 309 309 305 305 303
17 16 14 16 18 18 17 15 14 12 10 10 6 2 357 358 357 351 351 355 349 346 338 331 326 315 308 298 290 291 293 291 291 297 300 301 303 304 303 303 306 307 303
11 9 8 8 7 7 9 10 10 10 6 4 4 360 354 349 348 343 339 342 344 337 330 327 324 320 316 308 305 297 291 284 287 290 292 295 300 307 306 305 305 305 302
8 6 4 4 4 6 8 7 6 6 2 1 1 360 352 348 346 344 338 331 329 330 331 325 319 315 312 309 309 308 303 296 289 288 289 293 297 301 304 305 305 303 300
358 360 1 2 2 4 5 4 2 2 1 360 358 356 353 348 347 342 338 332 328 330 326 323 314 312 310 310 313 313 310 305 303 298 294 296 298 300 305 304 303 304 302
348 352 356 357 358 359 358 357 356 356 356 354 352 350 347 345 342 337 333 330 326 322 315 311 309 310 311 309 308 310 308 305 304 301 300 302 301 300 302 302 302 304 301